KE7YUP Weather Reports


Display with metric or nautical units.
time (UTC)temp
F
wind
direction
speed
MPH
gust
MPH
rain 1hr
in
rain 24hr
in
rain mn
in
humidity
%
barometer
mb
20210613090017 71 315 0.0 2.0 0.00 0.00 0.00 19 1019.9
20210613085017 71 352 4.0 4.0 0.00 0.00 0.00 19 1019.9
20210613084017 71 17 4.0 5.0 0.00 0.00 0.00 20 1019.9
20210613083017 73 20 4.0 5.0 0.00 0.00 0.00 18 1020.3
20210613082017 75 59 3.0 4.0 0.00 0.00 0.00 17 1020.6
20210613081017 74 28 2.0 5.0 0.00 0.00 0.00 17 1020.4
20210613080017 74 44 6.0 9.0 0.00 0.00 0.00 18 1020.5
20210613075017 71 49 4.0 6.0 0.00 0.00 0.00 20 1019.7
20210613074017 70 5 4.0 5.0 0.00 0.00 0.00 19 1019.9
20210613073017 71 352 4.0 5.0 0.00 0.00 0.00 18 1019.7
20210613072017 71 347 3.0 4.0 0.00 0.00 0.00 18 1019.6
20210613071016 71 330 1.0 3.0 0.00 0.00 0.00 18 1019.8
20210613070017 72 358 4.0 6.0 0.00 0.00 0.00 18 1020.0
20210613065016 73 341 3.0 6.0 0.00 0.00 0.00 17 1019.9
20210613064016 71 330 7.0 10.0 0.00 0.00 0.00 19 1019.4
20210613063017 69 355 0.0 4.0 0.00 0.00 0.00 19 1019.2
20210613062017 70 298 2.0 3.0 0.00 0.00 0.00 20 1019.3
20210613061017 71 347 4.0 5.0 0.00 0.00 0.00 19 1019.4
20210613060017 73 71 2.0 3.0 0.00 0.00 0.00 17 1019.7
20210613055016 73 71 3.0 3.0 0.00 0.00 0.00 17 1019.8
20210613054016 73 4 4.0 5.0 0.00 0.00 0.00 17 1019.8
20210613053016 75 80 3.0 4.0 0.00 0.00 0.00 18 1019.9
20210613052015 77 53 0.0 2.0 0.00 0.00 0.00 16 1020.0
20210613051016 77 349 5.0 10.0 0.00 0.00 0.00 16 1020.1
20210613050016 78 345 4.0 5.0 0.00 0.00 0.00 15 1020.1
20210613045015 79 343 9.0 13.0 0.00 0.00 0.00 14 1020.1
20210613044016 80 348 11.0 15.0 0.00 0.00 0.00 14 1020.0
20210613043016 79 357 10.0 15.0 0.00 0.00 0.00 14 1020.0
20210613042015 80 353 10.0 14.0 0.00 0.00 0.00 14 1019.9
20210613041015 80 356 10.0 14.0 0.00 0.00 0.00 14 1019.5
20210613040016 80 330 12.0 17.0 0.00 0.00 0.00 14 1019.6
20210613035015 80 334 11.0 16.0 0.00 0.00 0.00 14 1019.5
20210613034015 80 2 7.0 11.0 0.00 0.00 0.00 14 1019.4
20210613033015 79 36 6.0 13.0 0.00 0.00 0.00 15 1019.2
20210613032016 79 336 5.0 12.0 0.00 0.00 0.00 14 1019.3
20210613031015 80 351 7.0 14.0 0.00 0.00 0.00 14 1019.2
20210613030015 80 345 8.0 16.0 0.00 0.00 0.00 14 1019.3
20210613025015 80 5 7.0 12.0 0.00 0.00 0.00 14 1019.3
20210613024015 81 350 7.0 14.0 0.00 0.00 0.00 14 1019.3
20210613023015 81 353 9.0 19.0 0.00 0.00 0.00 14 1019.0
20210613022015 81 18 6.0 15.0 0.00 0.00 0.00 14 1019.0
20210613021015 82 45 3.0 10.0 0.00 0.00 0.00 13 1019.0
20210613020016 83 337 5.0 11.0 0.00 0.00 0.00 13 1019.1
20210613015015 84 53 5.0 14.0 0.00 0.00 0.00 13 1019.2
20210613014015 84 11 8.0 14.0 0.00 0.00 0.00 13 1019.2
20210613013015 85 10 5.0 12.0 0.00 0.00 0.00 12 1019.5
20210613012015 85 38 10.0 13.0 0.00 0.00 0.00 13 1019.3
20210613011015 85 27 9.0 14.0 0.00 0.00 0.00 12 1019.2
20210613010015 85 8 11.0 14.0 0.00 0.00 0.00 12 1018.8
20210613005015 85 47 10.0 15.0 0.00 0.00 0.00 12 1018.5
20210613004015 85 59 11.0 16.0 0.00 0.00 0.00 11 1018.5
20210613003015 85 51 12.0 15.0 0.00 0.00 0.00 11 1018.1
20210613002015 85 44 8.0 14.0 0.00 0.00 0.00 11 1018.3
20210613001015 86 62 4.0 11.0 0.00 0.00 0.00 10 1018.4
20210613000015 86 54 9.0 14.0 0.00 0.00 0.00 11 1018.6
20210612235017 87 19 4.0 9.0 0.00 0.00 0.00 11 1018.9
20210612234017 86 77 7.0 12.0 0.00 0.00 0.00 11 1018.6
20210612233017 86 53 9.0 13.0 0.00 0.00 0.00 11 1018.8
20210612232017 86 9 9.0 17.0 0.00 0.00 0.00 11 1018.8
20210612231015 86 46 8.0 13.0 0.00 0.00 0.00 10 1019.0
20210612230017 86 359 6.0 9.0 0.00 0.00 0.00 11 1019.5
20210612225017 86 48 13.0 16.0 0.00 0.00 0.00 11 1019.5
20210612224017 86 59 5.0 12.0 0.00 0.00 0.00 10 1019.6
20210612223017 86 359 7.0 10.0 0.00 0.00 0.00 10 1019.6
20210612222017 86 83 6.0 11.0 0.00 0.00 0.00 11 1019.2
20210612221017 86 57 13.0 16.0 0.00 0.00 0.00 11 1019.6
20210612220017 86 69 12.0 16.0 0.00 0.00 0.00 11 1020.1
20210612215017 85 330 5.0 11.0 0.00 0.00 0.00 12 1020.1
20210612214017 85 39 7.0 13.0 0.00 0.00 0.00 12 1020.2
20210612213017 86 47 10.0 15.0 0.00 0.00 0.00 13 1020.6
20210612212017 85 61 5.0 10.0 0.00 0.00 0.00 8 1020.1
20210612211017 85 78 5.0 8.0 0.00 0.00 0.00 7 1020.2
20210612210017 84 117 6.0 10.0 0.00 0.00 0.00 9 1019.9
20210612205016 84 122 7.0 11.0 0.00 0.00 0.00 8 1019.9
20210612204017 84 104 7.0 11.0 0.00 0.00 0.00 8 1020.1
20210612203017 84 131 8.0 11.0 0.00 0.00 0.00 10 1020.7
20210612202016 84 114 6.0 13.0 0.00 0.00 0.00 8 1020.7
20210612201017 83 157 5.0 10.0 0.00 0.00 0.00 10 1020.8
20210612200017 83 108 6.0 12.0 0.00 0.00 0.00 10 1021.0
20210612195016 83 160 9.0 11.0 0.00 0.00 0.00 10 1020.8
20210612194017 82 155 7.0 11.0 0.00 0.00 0.00 10 1020.9
20210612193017 81 108 6.0 10.0 0.00 0.00 0.00 11 1021.2
20210612192017 81 128 6.0 15.0 0.00 0.00 0.00 13 1021.0
20210612191016 80 89 5.0 11.0 0.00 0.00 0.00 13 1020.8
20210612190017 80 102 6.0 10.0 0.00 0.00 0.00 14 1020.9
20210612185016 79 90 6.0 10.0 0.00 0.00 0.00 14 1021.1
20210612184016 78 114 5.0 9.0 0.00 0.00 0.00 15 1021.2
20210612183016 77 100 4.0 10.0 0.00 0.00 0.00 16 1021.4
20210612182016 77 117 2.0 7.0 0.00 0.00 0.00 17 1021.3
20210612181016 76 106 5.0 8.0 0.00 0.00 0.00 18 1021.4
20210612180016 75 85 5.0 9.0 0.00 0.00 0.00 18 1021.5
20210612175016 76 136 5.0 9.0 0.00 0.00 0.00 17 1021.6
20210612174016 75 92 7.0 9.0 0.00 0.00 0.00 18 1021.6
20210612173016 74 99 4.0 9.0 0.00 0.00 0.00 22 1021.3
20210612172016 74 139 3.0 5.0 0.00 0.00 0.00 23 1021.3
20210612171016 74 144 2.0 5.0 0.00 0.00 0.00 24 1021.8
20210612170016 73 137 1.0 4.0 0.00 0.00 0.00 25 1021.9
20210612165016 72 177 3.0 6.0 0.00 0.00 0.00 27 1021.6
20210612164016 71 166 4.0 8.0 0.00 0.00 0.00 27 1022.1
20210612163016 71 114 3.0 7.0 0.00 0.00 0.00 26 1022.1
20210612162016 70 143 0.0 4.0 0.00 0.00 0.00 25 1022.3
20210612161017 69 133 3.0 6.0 0.00 0.00 0.00 26 1022.0
20210612160016 69 119 4.0 7.0 0.00 0.00 0.00 27 1022.4
20210612155016 68 105 3.0 6.0 0.00 0.00 0.00 28 1022.1
20210612154016 68 91 3.0 6.0 0.00 0.00 0.00 29 1022.1
20210612153016 68 135 1.0 4.0 0.00 0.00 0.00 29 1022.1
20210612152016 67 158 2.0 4.0 0.00 0.00 0.00 28 1022.2
20210612151016 67 126 3.0 6.0 0.00 0.00 0.00 28 1022.0
20210612150016 66 167 1.0 3.0 0.00 0.00 0.00 32 1022.1
20210612145016 66 171 2.0 5.0 0.00 0.00 0.00 31 1022.0
20210612144016 65 128 0.0 1.0 0.00 0.00 0.00 32 1022.0
20210612143016 64 152 0.0 2.0 0.00 0.00 0.00 31 1021.6
20210612142016 63 153 0.0 1.0 0.00 0.00 0.00 34 1021.5
20210612141016 63 97 3.0 8.0 0.00 0.00 0.00 31 1021.3
20210612140016 63 168 2.0 5.0 0.00 0.00 0.00 33 1021.5
20210612135016 62 111 2.0 6.0 0.00 0.00 0.00 33 1021.6
20210612134016 63 104 3.0 7.0 0.00 0.00 0.00 29 1021.5
20210612133016 63 86 3.0 4.0 0.00 0.00 0.00 28 1021.5
20210612132016 62 76 1.0 2.0 0.00 0.00 0.00 28 1021.4
20210612131016 61 79 2.0 3.0 0.00 0.00 0.00 30 1021.5
20210612130016 60 0.0 2.0 0.00 0.00 0.00 32 1021.2
20210612125016 58 355 3.0 3.0 0.00 0.00 0.00 33 1021.0
20210612124015 58 353 4.0 5.0 0.00 0.00 0.00 32 1020.8
20210612123016 56 349 4.0 5.0 0.00 0.00 0.00 32 1020.4
20210612122015 56 344 4.0 5.0 0.00 0.00 0.00 32 1020.4
20210612121015 55 345 5.0 6.0 0.00 0.00 0.00 31 1020.3
20210612120016 55 346 4.0 5.0 0.00 0.00 0.00 32 1020.0
20210612115016 55 354 2.0 4.0 0.00 0.00 0.00 29 1020.2
20210612114015 55 346 3.0 4.0 0.00 0.00 0.00 28 1020.1
20210612113015 55 348 4.0 5.0 0.00 0.00 0.00 29 1020.0
20210612112015 55 355 4.0 5.0 0.00 0.00 0.00 29 1020.1
20210612111015 57 355 0.0 1.0 0.00 0.00 0.00 26 1020.0
20210612110015 58 355 3.0 4.0 0.00 0.00 0.00 24 1020.2
20210612105015 59 345 1.0 4.0 0.00 0.00 0.00 27 1020.6
20210612104015 59 328 3.0 4.0 0.00 0.00 0.00 25 1020.5
20210612103015 59 325 5.0 7.0 0.00 0.00 0.00 26 1020.3
20210612102015 57 328 3.0 6.0 0.00 0.00 0.00 34 1020.4
20210612101015 57 301 2.0 3.0 0.00 0.00 0.00 34 1020.5
20210612100015 59 41 2.0 3.0 0.00 0.00 0.00 36 1020.9
20210612095016 59 36 0.0 2.0 0.00 0.00 0.00 32 1020.5
20210612094015 60 36 1.0 1.0 0.00 0.00 0.00 30 1020.6
20210612093015 60 49 2.0 2.0 0.00 0.00 0.00 27 1020.8
20210612092015 60 6 3.0 4.0 0.00 0.00 0.00 24 1020.7
20210612091015 60 16 4.0 5.0 0.00 0.00 0.00 24 1020.7